STARLINK-32570 (62137 NORAD) Tracking and Keplerian Element Data

This shows tracking and keplerian element data for the satellite.

Feedback or suggestion? Click here.




ElementValue
Catalog62137
NameSTARLINK-32570
Epoch Orbit1187
Epoch Day34.84430759
Epoch Year2025
RAAN230.1297
Inclination42.9979
Eccentricity0.0002027
Argument of Perigee275.6221
Mean Anonmoly84.4405
Mean Motion15.40689674
Decay Rate1.567E-05
L11 62137U 24222Z 25034.84430759 .00001567 00000+0 44785-4 0 9995
L22 62137 42.9979 230.1297 0002027 275.6221 84.4405 15.40689674 11873



Live tracking and technical data element details for STARLINK-32570 (NORAD 62137). STARLINK-32570 can be tracked NOW for your location showing map with azimuth and elevation plus other details from your city location.







IsCatalogInMostPopularTable: catalog: 62137, numindb: 17
Update: records affected: 1



GetName: 62137 STARLINK-32570

Hit Count: updated at: Mon, 19 May 2025 02:44:08 GMT